Theta_e
312 312 312 312 312 312 311 311 311 311 312 312 312 313 313 313 313 312 312 311 311 312 313 313 313 314 309 298 294 303 323 315 320 317 307 305 304 307 303 305 306 304 307 309 310 309 309
311 311 311 311 311 310 310 310 310 311 311 312 312 312 311 312 312 312 313 312 312 311 310 312 313 313 304 294 305 302 308 303 303 311 310 306 304 305 299 298 300 304 307 307 306 308 310
310 309 309 309 310 310 309 309 310 311 311 312 312 311 311 311 311 311 312 312 312 312 312 311 311 308 300 297 309 311 309 303 301 302 306 310 309 304 301 297 300 299 295 298 300 302 302
308 309 309 309 309 309 308 308 310 310 310 311 311 312 311 311 311 311 311 312 312 312 312 312 311 305 294 307 310 307 309 306 308 305 303 308 311 303 298 299 299 295 294 291 297 302 302
307 308 308 308 308 308 307 308 309 310 309 309 310 311 311 311 311 311 311 311 311 312 312 311 303 300 291 308 304 308 307 303 304 304 300 304 307 301 298 295 290 291 288 289 292 300 299
308 308 308 308 309 308 308 308 309 308 309 309 310 311 311 310 310 311 311 310 309 307 306 306 304 294 297 295 304 305 307 305 300 298 297 296 298 295 292 291 285 287 288 291 291 297 296
309 309 309 309 308 308 307 308 308 308 309 309 310 310 311 311 310 310 307 297 295 294 297 292 293 294 296 303 307 304 304 302 300 295 289 293 290 291 293 295 294 294 291 290 296 299 296
308 308 308 308 308 307 307 307 308 308 309 309 310 310 309 310 310 310 304 291 296 297 289 297 298 298 300 302 296 300 303 296 294 290 292 290 288 294 298 297 295 294 291 291 296 299 296
308 308 308 307 308 307 307 307 308 308 308 309 309 309 309 309 309 300 293 296 300 300 288 293 297 296 297 300 295 296 302 297 293 289 290 288 292 296 297 296 295 295 293 293 293 296 297
307 307 307 307 308 308 308 309 309 309 309 309 309 310 310 309 300 295 296 299 301 303 284 287 292 296 298 297 293 301 303 298 295 289 290 289 294 294 295 295 297 291 298 298 296 292 286
306 306 307 308 309 309 309 309 309 309 309 309 309 309 310 309 300 297 298 300 301 295 272 288 293 302 299 293 295 296 302 298 294 292 290 287 290 291 291 294 299 294 299 298 295 290 287
306 307 308 309 308 309 309 309 309 310 310 310 309 309 308 304 302 299 301 300 295 283 274 286 292 290 289 295 295 298 296 298 300 293 293 291 297 294 294 297 299 299 295 293 292 289 282
306 307 308 308 308 309 309 309 309 310 309 309 309 309 306 304 295 298 298 293 282 275 288 285 286 289 289 288 291 294 293 289 289 286 286 290 290 293 296 292 295 295 288 280 279 280 281
306 306 307 308 308 309 308 308 309 309 309 308 307 307 302 303 299 300 294 285 275 282 283 290 288 288 285 288 287 289 290 288 291 290 288 286 283 292 296 292 290 291 289 283 278 279 285
306 307 307 307 308 308 308 308 308 308 308 307 305 295 295 300 300 301 292 278 277 283 287 286 287 283 284 287 287 287 286 289 291 293 285 286 287 295 297 297 296 290 288 291 286 288 284
307 307 307 307 308 307 308 308 308 308 308 306 297 296 292 299 300 298 287 279 282 288 288 287 281 285 280 283 284 285 285 291 290 293 294 289 284 294 295 297 296 293 295 285 285 281 279
307 307 307 308 308 308 308 308 308 308 307 304 290 286 292 303 301 292 277 279 285 290 290 285 284 283 283 283 286 283 284 289 292 291 293 290 287 288 293 291 289 287 289 287 288 285 281
307 307 307 308 308 308 308 308 308 307 305 298 291 279 294 304 289 288 279 286 290 288 290 288 288 286 284 286 285 284 284 287 294 293 286 290 286 284 288 292 297 294 288 288 286 282 285
307 307 307 308 308 308 307 307 308 307 304 294 289 286 296 297 282 280 286 287 289 287 288 287 286 288 287 284 282 286 288 294 293 292 288 292 285 281 284 288 291 291 291 291 288 286 286
306 306 306 306 307 307 307 307 307 307 305 291 286 280 285 291 288 286 283 283 284 290 288 288 286 287 284 283 286 284 286 291 293 292 296 295 285 285 282 286 289 288 291 292 287 282 286
305 306 306 306 306 306 307 307 307 306 305 291 284 280 287 282 282 284 286 284 283 284 289 289 285 285 285 282 284 285 288 290 293 293 293 291 281 286 288 291 292 290 291 292 289 290 286
305 305 305 305 305 306 305 306 307 307 303 290 281 288 289 285 287 285 282 284 284 285 288 286 285 287 286 282 285 284 288 289 288 291 291 291 281 285 284 291 292 291 291 292 292 292 291
305 306 305 305 305 305 305 305 306 306 300 288 291 296 290 287 285 282 279 284 285 286 288 290 289 287 285 287 290 291 292 291 291 289 288 288 284 281 279 286 288 286 291 291 292 294 293
305 305 305 305 305 305 305 304 305 306 304 299 295 294 288 283 284 283 284 285 285 287 285 288 290 286 290 293 293 292 291 291 292 293 293 287 285 283 279 285 279 290 296 296 293 294 295
304 305 304 304 304 305 305 306 306 307 307 299 297 294 290 283 286 285 287 286 287 288 285 288 291 293 293 289 284 283 285 287 289 292 291 291 288 281 279 282 287 291 294 293 290 292 296
304 304 304 304 305 305 305 306 307 307 307 300 297 298 294 287 284 289 287 288 285 285 285 288 293 293 294 285 282 277 277 284 284 287 293 292 291 284 283 282 280 289 296 300 298 287 297
304 304 304 304 304 305 305 306 307 307 307 300 299 299 295 287 290 289 286 287 290 289 288 289 290 291 294 286 282 281 277 288 282 283 287 285 286 282 282 280 286 295 297 299 287 287 296
303 303 304 304 305 305 305 306 307 307 308 302 297 299 296 290 291 293 292 289 291 290 286 290 289 287 289 284 284 283 284 287 286 288 285 285 284 282 284 281 282 298 296 289 293 296 298
303 303 303 304 305 305 305 306 307 308 308 307 297 298 300 294 292 297 296 297 295 294 291 292 290 290 292 286 287 288 286 287 286 282 290 285 289 286 289 290 296 298 297 298 297 297 298
Wind_Speed
18 18 17 17 17 17 17 16 16 17 17 17 17 18 18 17 17 17 17 19 19 19 17 15 14 14 6 4 11 8 18 11 6 4 8 10 8 8 9 7 5 8 12 8 8 10 8
17 18 18 17 17 17 18 18 18 17 17 17 17 17 18 17 17 17 16 16 16 17 18 17 14 12 5 17 8 8 12 7 7 4 4 7 10 8 5 7 7 6 9 9 4 10 13
18 17 18 19 19 18 19 20 20 20 19 18 18 18 19 20 20 20 20 18 17 17 19 17 15 9 14 27 7 12 19 6 6 5 8 10 4 8 6 2 5 4 4 8 10 11 8
18 18 17 17 18 18 20 20 20 19 20 19 19 19 20 21 21 21 22 21 20 22 22 18 13 9 13 7 10 17 18 11 13 11 3 5 6 4 4 1 4 1 2 4 5 6 7
15 16 16 16 15 16 18 18 19 19 20 20 19 18 19 21 21 22 22 22 25 22 15 9 6 7 14 10 7 16 17 12 5 9 6 7 6 7 3 6 2 2 9 7 8 9 5
16 15 16 18 18 18 17 18 18 19 19 19 19 18 18 20 22 21 22 24 19 3 6 6 5 2 8 4 8 6 8 20 7 8 6 7 5 6 5 7 15 7 6 6 13 1 4
19 20 20 19 19 19 18 18 19 20 20 20 21 20 20 19 19 18 17 7 4 2 0 5 7 8 15 8 8 7 5 11 6 5 10 7 7 22 27 20 9 14 9 11 14 2 3
18 18 18 18 19 19 19 20 21 21 21 21 22 22 21 19 19 19 6 1 3 2 11 11 18 23 25 14 12 13 13 8 10 15 11 6 29 19 12 18 19 9 14 22 15 6 4
20 18 18 19 19 19 20 21 21 22 21 21 21 21 21 19 19 4 0 5 6 9 5 10 11 9 12 13 17 18 9 7 7 13 25 27 17 13 18 15 15 19 20 17 17 5 5
18 19 19 19 18 19 21 22 22 22 22 21 20 20 19 19 5 2 5 2 5 6 4 9 5 8 6 7 10 27 7 7 6 19 16 20 22 18 17 24 19 23 17 14 14 4 6
19 18 19 18 19 20 22 22 23 22 22 20 20 20 18 12 5 4 4 6 7 1 5 2 4 3 3 8 6 6 25 9 9 11 11 12 19 28 24 21 20 12 10 12 9 5 1
19 20 20 20 21 22 22 21 22 21 21 20 20 20 18 6 3 6 4 6 1 1 9 4 4 11 5 5 10 7 11 15 6 8 11 9 6 21 22 13 19 5 6 4 2 3 4
19 20 21 21 21 22 21 22 22 22 21 21 20 20 15 7 4 4 2 2 2 5 6 3 7 13 11 15 6 2 7 19 14 10 10 5 10 2 9 8 8 10 10 1 3 1 6
19 20 19 20 21 21 21 22 22 22 21 20 20 18 4 4 1 2 2 2 6 5 7 11 9 10 10 14 13 14 7 5 20 4 8 8 4 12 8 9 12 17 13 9 8 5 5
19 20 21 22 22 22 22 22 22 22 22 21 17 3 4 2 4 3 2 3 4 4 6 10 8 5 5 10 7 11 7 6 5 12 5 9 11 5 19 10 18 7 16 10 4 2 1
19 20 21 22 21 23 22 22 23 23 23 21 4 4 4 3 4 2 1 4 3 3 8 8 2 4 5 10 8 11 7 12 10 12 5 5 2 13 15 12 17 15 12 7 4 7 5
19 19 20 20 21 22 22 23 23 24 23 16 3 3 3 4 1 2 2 4 4 8 9 4 2 3 6 10 6 3 5 16 17 19 9 3 2 4 11 19 15 5 10 4 6 6 6
20 20 20 21 21 21 22 22 23 23 19 6 3 4 4 2 1 1 2 3 6 7 6 5 4 7 8 10 6 5 5 5 14 18 11 4 2 5 15 7 18 20 10 9 11 7 3
21 21 21 20 21 22 22 22 21 21 10 3 3 3 3 4 2 3 4 6 4 4 4 3 4 5 5 7 6 9 3 3 8 12 12 10 5 2 4 3 5 23 13 12 6 5 15
22 22 21 21 20 21 21 23 19 20 10 3 3 5 5 3 1 4 6 5 5 5 7 4 4 4 3 9 7 6 9 5 3 12 15 9 4 4 6 2 5 17 19 18 8 5 7
23 23 22 21 20 20 20 21 20 19 9 3 3 3 2 4 4 9 6 4 7 7 3 7 4 1 5 4 6 7 3 7 5 1 3 6 5 4 11 13 9 1 18 20 20 13 7
23 23 23 21 20 20 20 20 20 16 8 4 2 3 2 4 7 9 3 3 5 4 3 5 3 8 8 5 5 12 6 2 5 7 3 7 5 6 6 12 8 11 6 20 24 20 14
23 22 22 22 20 19 19 18 19 16 4 2 3 1 1 5 5 3 4 4 6 13 8 8 7 10 10 10 4 8 7 11 11 7 4 2 4 6 5 10 8 9 21 11 10 15 15
23 23 23 23 21 18 17 18 16 16 3 2 3 1 2 3 3 3 8 14 14 13 11 13 10 6 6 9 13 9 12 13 12 13 8 6 3 3 5 4 6 7 9 13 11 8 17
24 23 24 23 22 20 19 18 17 16 12 2 2 2 2 4 6 10 9 12 14 12 6 7 7 7 6 5 3 4 2 2 7 12 12 10 5 3 2 3 6 1 8 6 4 11 6
26 26 25 23 23 21 21 19 17 15 13 3 2 2 1 4 4 5 12 10 7 7 5 4 7 5 3 1 1 2 3 2 3 5 12 8 10 4 2 3 6 2 17 12 8 6 11
25 25 26 25 24 22 21 19 17 15 13 2 2 5 2 4 5 3 5 4 4 4 4 5 8 4 4 2 1 2 4 2 3 3 4 4 4 8 6 4 5 11 19 12 8 6 17
26 26 25 25 24 23 21 20 18 15 12 3 3 5 3 4 9 8 5 5 4 4 3 5 7 2 2 2 2 3 3 2 2 2 1 4 2 3 3 4 4 15 8 10 7 9 12
27 26 26 25 25 23 22 20 17 15 12 4 3 3 3 4 7 10 16 19 16 19 6 4 4 5 2 2 2 3 2 2 2 2 1 3 4 2 3 3 3 4 3 5 4 11 13
Wind_Direction
14 13 10 7 5 3 357 353 350 348 347 345 344 343 339 333 327 322 321 318 316 319 320 316 316 322 342 263 242 264 321 359 50 136 181 166 157 163 181 195 197 226 238 240 264 288 255
8 4 1 360 359 358 353 349 346 345 342 339 337 338 335 330 326 320 312 313 308 311 310 309 307 307 264 252 248 316 3 335 184 186 208 184 186 181 194 205 179 222 225 248 261 273 272
3 360 359 355 351 351 350 345 343 342 342 340 337 334 332 331 329 325 321 316 309 304 299 293 293 288 255 243 260 302 306 284 321 218 203 223 254 170 165 290 220 230 265 268 229 235 247
358 354 354 351 348 347 343 340 337 339 338 335 334 332 332 330 327 324 323 314 305 291 285 278 276 279 255 247 239 259 261 274 251 279 280 238 229 257 187 244 0 303 160 261 190 222 241
357 352 349 347 348 343 342 337 333 338 334 331 330 328 329 327 324 324 321 314 303 300 288 251 235 233 272 312 244 242 236 226 274 205 234 275 168 194 137 169 352 327 258 256 298 209 211
351 347 347 350 350 347 342 335 339 334 330 329 326 326 325 323 324 325 323 316 305 61 85 138 231 276 257 224 293 231 183 199 199 148 150 187 202 177 182 160 209 195 245 228 246 321 171
350 354 358 353 350 347 340 338 335 332 331 328 328 328 325 324 324 323 331 342 16 2 315 202 196 249 281 303 329 305 154 156 213 151 171 180 191 214 204 208 197 224 224 238 253 197 230
359 359 356 353 348 344 339 337 334 332 329 327 329 329 329 326 322 324 325 278 31 55 298 244 242 235 247 261 291 289 148 146 189 194 146 160 220 214 186 202 209 198 227 245 276 229 225
359 357 358 353 347 342 338 334 330 327 325 324 325 326 327 326 320 30 224 257 341 326 257 277 226 234 233 209 226 249 242 165 177 183 193 201 219 187 196 199 196 216 216 232 245 359 257
359 357 354 349 343 339 336 332 328 323 321 320 321 322 326 332 352 290 278 301 323 303 301 267 216 246 205 207 237 235 229 184 188 197 191 231 227 192 194 209 188 219 208 240 251 160 244
1 356 353 347 344 341 337 334 333 329 321 314 315 318 322 329 288 284 271 325 327 85 309 246 174 155 247 195 313 250 206 229 200 176 169 211 189 204 204 201 189 231 183 207 225 210 317
1 357 351 350 348 343 339 338 335 332 327 321 315 317 322 305 208 243 358 317 95 127 245 273 71 340 340 252 260 292 174 229 194 200 237 204 205 200 211 200 199 176 92 69 71 127 252
1 356 351 348 348 344 343 341 338 337 334 331 322 314 310 280 259 131 360 22 145 211 317 34 348 346 336 348 343 337 238 193 195 184 205 169 223 211 154 143 164 162 122 296 317 258 221
359 355 351 348 346 344 343 340 338 337 335 330 321 313 283 243 319 227 95 85 216 247 248 1 340 329 318 16 335 353 335 187 224 249 180 188 190 190 177 184 167 181 171 161 188 202 243
355 351 347 346 343 343 342 340 339 338 336 329 321 330 297 260 194 181 163 197 230 355 9 344 338 1 331 14 340 346 331 355 27 238 254 190 229 167 175 174 161 190 210 161 128 229 128
352 348 346 343 340 341 340 340 341 339 334 331 317 333 296 318 155 163 113 257 274 6 336 337 355 330 341 341 319 352 322 31 2 356 348 268 230 213 198 174 196 185 138 168 204 193 228
349 348 346 342 339 338 339 342 343 341 334 335 33 28 272 66 308 40 173 258 293 290 335 293 323 315 308 305 331 341 287 310 353 354 336 308 165 272 146 202 172 149 176 139 154 151 168
343 344 344 342 338 337 336 340 344 344 341 29 345 27 296 264 360 3 292 288 311 289 300 263 251 228 263 293 314 319 259 253 341 335 344 302 309 249 208 172 194 199 180 164 191 193 173
338 339 340 341 339 338 335 335 341 343 5 324 334 283 313 61 30 319 291 279 260 289 308 305 307 327 312 310 320 321 37 128 290 332 348 341 306 165 350 166 207 201 198 187 85 103 206
335 335 336 339 340 338 336 332 343 340 352 77 4 348 330 38 255 334 336 287 316 291 310 297 275 275 292 283 257 274 289 303 248 299 313 319 269 256 213 253 121 199 201 190 146 154 175
334 335 335 338 342 341 336 334 344 340 358 88 26 289 256 329 330 321 303 291 309 339 328 327 314 299 350 293 319 271 358 343 263 335 344 322 279 289 279 271 298 38 203 207 212 211 171
333 334 335 336 341 343 338 334 339 342 0 66 73 347 321 277 308 323 318 264 301 311 285 290 238 304 298 249 255 286 309 258 251 135 130 325 282 337 299 282 279 272 255 216 209 216 233
332 331 334 335 337 340 338 336 331 340 49 48 284 285 262 285 314 324 262 330 306 318 286 226 279 300 298 290 281 275 274 265 251 293 162 164 315 351 291 336 315 258 237 230 231 215 197
334 333 334 335 334 333 332 334 324 323 278 203 248 281 274 288 263 248 285 293 295 301 288 279 290 268 258 323 312 264 245 242 227 239 176 176 136 258 265 325 202 256 190 204 207 225 228
336 333 334 334 330 327 332 327 320 315 321 192 221 197 266 278 257 283 287 313 309 299 264 262 283 301 326 305 282 305 260 203 230 219 184 186 128 265 233 257 282 304 45 9 166 241 195
334 333 333 332 328 328 332 326 319 313 311 186 199 208 259 294 248 281 309 291 299 316 302 248 309 316 329 298 291 250 250 269 194 178 210 202 186 211 295 239 214 56 315 311 268 223 16
332 332 333 331 327 327 330 327 324 319 308 180 235 182 227 260 262 246 263 314 290 274 273 296 336 313 302 321 260 262 255 235 236 149 159 93 124 197 226 283 284 335 322 307 135 294 326
330 331 331 329 325 326 329 324 323 318 308 172 241 180 194 247 282 247 266 223 251 228 270 339 315 326 277 299 284 312 293 308 352 70 175 100 165 178 187 252 285 352 1 59 283 301 310
328 330 330 328 326 326 330 323 320 312 299 262 245 176 178 254 274 295 268 255 251 250 263 237 276 300 271 303 310 291 270 246 238 191 287 188 186 145 253 293 344 352 240 242 274 309 313